Hourly Weather Roundup
Issued by NWS Central Illinois

Home | Current Version | Previous Version | Text Only | Print | Product List | Glossary On
Versions: 1 2 3 4 5 6 7 8 9 10 11 12 13 14 15 16 17 18 19 20 21 22 23 24 25 26 27 28 29 30 31 32 33 34 35 36 37 38 39 40 41 42 43 44 45 46 47 48 49 50
000
NZUS43 KILX 311210
HWRILX

AREA WEATHER ROUNDUP
NATIONAL WEATHER SERVICE, LINCOLN IL
700 AM CDT THU JUL 31 2014


CITY           SKY/WX    TMP DP  RH WIND       PRES   REMARKS
BLOOMINGTON    SUNNY     58  56  93 SW3       30.09S
CHAMPAIGN      SUNNY     60  58  92 NW3       30.08S
6HR MIN TEMP:  56; 6HR MAX TEMP:  62;

DECATUR        SUNNY     60  57  89 CALM      30.08S
6HR MIN TEMP:  59; 6HR MAX TEMP:  64;

FLORA          SUNNY     57  56  99 CALM      30.09S
6HR MIN TEMP:  55; 6HR MAX TEMP:  66;

GALESBURG      SUNNY     55  55  99 CALM      30.08S
JACKSONVILLE   SUNNY     61  60  97 CALM      30.10S
6HR MIN TEMP:  58; 6HR MAX TEMP:  62;

LACON          SUNNY     60  58  95 CALM      30.06S FOG
6HR MIN TEMP:  56; 6HR MAX TEMP:  61;

LAWRENCEVILLE  SUNNY     61  60  97 CALM      30.09S FOG
6HR MIN TEMP:  59; 6HR MAX TEMP:  62;

LITCHFIELD     SUNNY     60  58  92 CALM      30.10R
$$


CITY           SKY/WX    TMP DP  RH WIND       PRES   REMARKS
LINCOLN        SUNNY     58  56  94 CALM      30.06S FOG
6HR MIN TEMP:  56; 6HR MAX TEMP:  62;

MACOMB           N/A     56  56 100 W3        30.10S
MATTOON        SUNNY     64  58  80 W6        30.08S
6HR MIN TEMP:  58; 6HR MAX TEMP:  65;

MT CARMEL AP   SUNNY     61  59  94 CALM      30.09S
OLNEY-NOBLE AP SUNNY     59  59 100 CALM      30.09R FOG
PARIS          SUNNY     59  58  96 CALM      30.09S
6HR MIN TEMP:  55; 6HR MAX TEMP:  59;

PEORIA         SUNNY     62  57  83 CALM      30.07S
6HR MIN TEMP:  60; 6HR MAX TEMP:  66;

PONTIAC        SUNNY     55  55 100 CALM      30.07S FOG
RANTOUL        SUNNY     61  58  88 W6        30.08F
6HR MIN TEMP:  59; 6HR MAX TEMP:  64;

ROBINSON       SUNNY     60  59  97 CALM      30.10R FOG
6HR MIN TEMP:  56; 6HR MAX TEMP:  64;

SPRINGFIELD    SUNNY     60  57  89 SW3       30.08S
6HR MIN TEMP:  57; 6HR MAX TEMP:  63;

TAYLORVILLE    SUNNY     55  54  94 S3        30.09S
$$

...REGIONAL REPORTS...


CITY           SKY/WX    TMP DP  RH WIND       PRES   REMARKS
CHICAGO O`HARE PTSUNNY   64  55  72 NW5       30.02S
KANKAKEE       SUNNY     56  56  98 CALM      30.07R FOG
MOLINE         SUNNY     60  57  89 SW3       30.06R
MOUNT VERNON   SUNNY     57  54  88 CALM      30.10S
PITTSFIELD     CLEAR     59  56  90 CALM      30.11R
QUINCY         PTCLDY    60  58  92 SW3       30.09S FOG
ROCKFORD       MOSUNNY   58  55  90 S5        30.05F
$$


CITY           SKY/WX    TMP DP  RH WIND       PRES   REMARKS
BURLINGTON     CLEAR     60  58  92 CALM      30.08S
CEDAR RAPIDS   CLEAR     58  57  97 CALM      30.07R
DES MOINES     PTCLDY    60  56  86 SW3       30.10R
KIRKSVILLE     CLEAR     55  54  96 W3        30.12R
OTTUMWA        CLEAR     57  56  96 W3        30.09S
ST LOUIS       PTCLDY    67  61  81 CALM      30.09S
$$


CITY           SKY/WX    TMP DP  RH WIND       PRES   REMARKS
TERRE HAUTE    SUNNY     59  57  93 CALM      30.09R
EVANSVILLE     SUNNY     63  59  87 CALM      30.09S
INDIANAPOLIS   MOSUNNY   62  59  90 SW7       30.08R
LAFAYETTE      SUNNY     59  58  96 CALM      30.07R FOG
MADISON        SUNNY     64  58  80 CALM      30.01S
MILWAUKEE      MOSUNNY   64  55  72 W6        30.01R
$$





USA.gov is the U.S. government's official web portal to all federal, state and local government web resources and services.